START_TIME,STEP,MOV.,H8,t_acc.,H43,t_acc.,M25,t_acc.,H9,t_acc.
1979-08-07 12:00:27.990 ,0,0,0.,12.0,0.,12.0,0.,12.0,0.,12.0
1979-08-07 12:00:39.990 ,0,0,0.,12.0,0.,12.0,0.,12.0,0.,12.0
1979-08-07 12:00:51.990 ,1,0,0.,12.0,0.,12.0,0.,12.0,0.,12.0
1979-08-07 12:01:03.990 ,1,0,0.,12.0,0.,12.0,0.,12.0,0.,12.0
1979-08-07 12:01:15.990 ,1,0,0.,12.0,0.,12.0,0.,12.0,0.,12.0
1979-08-07 12:01:27.990 ,1,0,0.,12.0,0.,12.0,0.,12.0,0.,12.0
1979-08-07 12:01:39.990 ,2,0,0.,12.0,0.,12.0,0.,12.0,0.,12.0
1979-08-07 12:01:51.990 ,2,0,0.,12.0,0.,12.0,0.,12.0,0.,12.0
1979-08-07 12:02:03.990 ,2,0,0.,12.0,0.,12.0,0.,12.0,0.,12.0
1979-08-07 12:02:15.990 ,2,0,0.,12.0,0.,12.0,0.,12.0,0.,12.0
1979-08-07 12:02:27.990 ,3,0,0.,12.0,0.,12.0,0.,12.0,0.,12.0
1979-08-07 12:02:39.990 ,3,0,0.,12.0,0.,12.0,0.,12.0,0.,12.0
1979-08-07 12:02:51.990 ,3,0,0.,12.0,0.,12.0,0.,12.0,0.,12.0
1979-08-07 12:03:03.990 ,3,0,0.,12.0,0.,12.0,0.,12.0,0.,12.0
1979-08-07 12:03:15.990 ,4,0,0.,12.0,0.,12.0,0.,12.0,0.,12.0
1979-08-07 12:03:27.990 ,4,0,0.,12.0,0.,12.0,0.,12.0,0.,12.0
1979-08-07 12:03:39.990 ,4,0,0.,12.0,0.,12.0,0.,12.0,0.,12.0
1979-08-07 12:03:51.990 ,4,0,0.,12.0,0.,12.0,0.,12.0,0.,12.0
1979-08-07 12:05:15.990 ,6,0,0.,12.0,0.,12.0,0.,12.0,0.,12.0
1979-08-07 12:05:27.990 ,6,0,0.,12.0,0.,12.0,0.,12.0,0.,12.0
1979-08-07 12:05:39.990 ,7,0,0.,12.0,0.,12.0,0.,12.0,0.,12.0
1979-08-07 12:05:51.990 ,7,0,0.,12.0,0.,12.0,0.,12.0,0.,12.0
1979-08-07 12:06:03.990 ,7,0,0.,12.0,0.,12.0,0.,12.0,0.,12.0
1979-08-07 12:06:15.990 ,7,0,0.,12.0,0.,12.0,0.,12.0,0.,12.0
1979-08-07 12:06:27.990 ,7,0,0.,12.0,0.,12.0,0.,12.0,0.,12.0
1979-08-07 12:06:39.990 ,7,0,0.,12.0,0.,12.0,0.,12.0,0.,12.0
1979-08-07 12:06:51.990 ,7,0,0.,12.0,0.,12.0,0.,12.0,0.,12.0
1979-08-07 12:07:03.990 ,7,0,0.,12.0,0.,12.0,0.,12.0,0.,12.0
1979-08-07 12:07:15.990 ,6,0,0.,12.0,0.,12.0,0.,12.0,0.,12.0
1979-08-07 12:07:27.990 ,6,0,0.,12.0,0.,12.0,0.,12.0,0.,12.0
1979-08-07 12:07:39.990 ,6,0,0.,12.0,0.,12.0,0.,12.0,0.,12.0
1979-08-07 12:07:51.990 ,6,0,0.,12.0,0.,12.0,0.,12.0,0.,12.0
1979-08-07 12:08:03.990 ,5,0,0.,12.0,0.,12.0,0.,12.0,0.,12.0
1979-08-07 12:08:15.990 ,5,0,0.,12.0,0.,12.0,0.,12.0,0.,12.0
1979-08-07 12:08:27.990 ,5,0,0.,12.0,0.,12.0,0.,12.0,0.,12.0
1979-08-07 12:08:39.990 ,5,0,0.,12.0,0.,12.0,0.,12.0,0.,12.0
1979-08-07 12:08:51.990 ,4,0,0.,12.0,0.,12.0,0.,12.0,0.,12.0
1979-08-07 12:09:03.990 ,4,0,0.,12.0,0.,12.0,0.,12.0,0.,12.0
1979-08-07 12:09:15.990 ,4,0,0.,12.0,0.,12.0,0.,12.0,0.,12.0
1979-08-07 12:09:27.990 ,4,0,0.,12.0,0.,12.0,0.,12.0,0.,12.0
1979-08-07 12:09:39.990 ,3,0,0.,12.0,0.,12.0,0.,12.0,0.,12.0
1979-08-07 12:09:51.990 ,3,0,0.,12.0,0.,12.0,0.,12.0,0.,12.0
1979-08-07 12:10:03.990 ,3,0,0.,12.0,0.,12.0,0.,12.0,0.,12.0
1979-08-07 12:10:15.990 ,3,0,0.,12.0,0.,12.0,0.,12.0,0.,12.0
1979-08-07 12:10:27.990 ,2,0,0.,12.0,0.,12.0,0.,12.0,0.,12.0
1979-08-07 12:10:39.990 ,2,0,0.,12.0,0.,12.0,0.,12.0,0.,12.0
1979-08-07 12:10:51.990 ,2,0,0.,12.0,0.,12.0,0.,12.0,0.,12.0
1979-08-07 12:11:03.990 ,2,0,0.,12.0,0.,12.0,0.,12.0,0.,12.0
1979-08-07 12:11:15.990 ,1,0,0.,12.0,0.,12.0,0.,12.0,0.,12.0
1979-08-07 12:11:27.990 ,1,0,0.,12.0,0.,12.0,0.,12.0,0.,12.0
1979-08-07 12:11:39.990 ,1,0,0.,12.0,0.,12.0,0.,12.0,0.,12.0
1979-08-07 12:11:51.990 ,1,0,0.,12.0,0.,12.0,0.,12.0,0.,12.0
1979-08-07 12:12:03.990 ,0,0,0.,12.0,0.,12.0,0.,12.0,0.,12.0
1979-08-07 12:12:15.990 ,0,0,0.,12.0,0.,12.0,0.,12.0,0.,12.0
1979-08-07 12:12:27.990 ,0,0,0.,12.0,0.,12.0,0.,12.0,0.,12.0
1979-08-07 12:12:39.990 ,0,0,0.,12.0,0.,12.0,0.,12.0,0.,12.0
1979-08-07 12:12:51.990 ,0,0,0.,12.0,0.,12.0,0.,12.0,0.,12.0
1979-08-07 12:13:03.990 ,0,0,0.,12.0,0.,12.0,0.,12.0,0.,12.0
1979-08-07 12:13:15.990 ,0,0,0.,12.0,0.,12.0,0.,12.0,0.,12.0
1979-08-07 12:13:27.990 ,0,0,0.,12.0,0.,12.0,0.,12.0,0.,12.0
1979-08-07 12:13:39.990 ,1,0,0.,12.0,0.,12.0,0.,12.0,0.,12.0
1979-08-07 12:13:51.990 ,1,0,0.,12.0,0.,12.0,0.,12.0,0.,12.0
1979-08-07 12:14:27.990 ,2,0,0.,12.0,0.,12.0,0.,12.0,0.,12.0
1979-08-07 12:14:39.990 ,2,0,0.,12.0,0.,12.0,0.,12.0,0.,12.0
1979-08-07 12:14:51.990 ,2,0,0.,12.0,0.,12.0,0.,12.0,0.,12.0
1979-08-07 12:15:03.990 ,2,0,0.,12.0,0.,12.0,0.,12.0,0.,12.0
1979-08-07 12:15:15.990 ,3,0,0.,12.0,0.,12.0,0.,12.0,0.,12.0
1979-08-07 12:15:27.990 ,3,0,0.,12.0,0.,12.0,0.,12.0,0.,12.0
1979-08-07 12:15:39.990 ,3,0,0.,12.0,0.,12.0,0.,12.0,0.,12.0
1979-08-07 12:15:51.990 ,3,0,0.,12.0,0.,12.0,0.,12.0,0.,12.0
1979-08-07 12:16:03.990 ,4,0,0.,12.0,0.,12.0,0.,12.0,0.,12.0
1979-08-07 12:16:15.990 ,4,0,0.,12.0,0.,12.0,0.,12.0,0.,12.0
1979-08-07 12:16:27.990 ,4,0,0.,12.0,0.,12.0,0.,12.0,0.,12.0
1979-08-07 12:16:39.990 ,4,0,0.,12.0,0.,12.0,0.,12.0,0.,12.0
1979-08-07 12:16:51.990 ,5,0,0.,12.0,0.,12.0,0.,12.0,0.,12.0
1979-08-07 12:17:03.990 ,5,0,0.,12.0,0.,12.0,0.,12.0,0.,12.0
1979-08-07 12:17:15.990 ,5,0,0.,12.0,0.,12.0,0.,12.0,0.,12.0
1979-08-07 12:17:27.990 ,5,0,0.,12.0,0.,12.0,0.,12.0,0.,12.0
1979-08-07 12:17:39.990 ,6,0,0.,12.0,0.,12.0,0.,12.0,0.,12.0
1979-08-07 12:17:51.990 ,6,0,0.,12.0,0.,12.0,0.,12.0,0.,12.0
1979-08-07 12:18:03.990 ,6,0,0.,12.0,0.,12.0,0.,12.0,0.,12.0
1979-08-07 12:18:15.990 ,6,0,0.,12.0,0.,12.0,0.,12.0,0.,12.0
1979-08-07 12:18:27.990 ,7,0,0.,12.0,1.,12.0,0.,12.0,0.,12.0
1979-08-07 12:18:39.990 ,7,0,0.,12.0,0.,12.0,0.,12.0,0.,12.0
1979-08-07 12:18:51.990 ,7,0,0.,12.0,0.,12.0,0.,12.0,0.,12.0
1979-08-07 12:19:03.990 ,7,0,0.,12.0,0.,12.0,0.,12.0,0.,12.0
1979-08-07 12:19:15.990 ,3,1,0.,12.0,0.,12.0,0.,12.0,0.,12.0
1979-08-07 12:19:27.990 ,3,1,0.,12.0,0.,12.0,0.,12.0,0.,12.0
1979-08-07 12:19:39.990 ,0,1,0.,12.0,0.,12.0,0.,12.0,0.,12.0
1979-08-07 12:19:51.990 ,0,1,0.,12.0,0.,12.0,0.,12.0,0.,12.0
1979-08-07 12:20:51.990 ,3,1,0.,12.0,0.,12.0,0.,12.0,0.,12.0
1979-08-07 12:21:03.990 ,3,1,0.,12.0,0.,12.0,0.,12.0,0.,12.0
1979-08-07 12:21:15.990 ,0,1,0.,12.0,0.,12.0,0.,12.0,0.,12.0
1979-08-07 12:21:27.990 ,0,1,0.,12.0,0.,12.0,0.,12.0,0.,12.0
1979-08-07 12:21:39.990 ,4,1,0.,12.0,0.,12.0,0.,12.0,0.,12.0
1979-08-07 12:21:51.990 ,4,1,0.,12.0,0.,12.0,0.,12.0,0.,12.0
1979-08-07 12:22:03.990 ,7,1,0.,12.0,0.,12.0,0.,12.0,0.,12.0
1979-08-07 12:22:15.990 ,7,1,0.,12.0,0.,12.0,0.,12.0,0.,12.0
1979-08-07 12:25:39.990 ,0,0,0.,12.0,0.,12.0,0.,12.0,0.,12.0
1979-08-07 12:25:51.990 ,0,0,0.,12.0,0.,12.0,0.,12.0,0.,12.0
1979-08-07 12:26:03.990 ,0,1,0.,12.0,0.,12.0,0.,12.0,0.,12.0
1979-08-07 12:26:15.990 ,0,1,0.,12.0,0.,12.0,0.,12.0,0.,12.0
1979-08-07 13:04:18.990 ,0,0,,0,,0,,0,,0
1979-08-07 13:04:30.990 ,0,0,0.,12.0,0.,12.0,0.,12.0,0.,12.0
1979-08-07 13:04:27.990 ,0,0,0.,12.0,0.,12.0,0.,12.0,0.,12.0
1979-08-07 13:04:39.990 ,0,0,0.,12.0,0.,12.0,0.,12.0,0.,12.0
1979-08-07 13:04:27.990 ,0,0,0.,12.0,0.,12.0,0.,12.0,0.,12.0
1979-08-07 13:04:39.990 ,0,0,0.,12.0,0.,12.0,0.,12.0,0.,12.0
1979-08-07 13:04:27.990 ,0,0,0.,12.0,0.,12.0,0.,12.0,0.,12.0
1979-08-07 13:04:39.990 ,0,0,0.,12.0,0.,12.0,0.,12.0,0.,12.0
1979-08-07 13:04:51.990 ,5,0,0.,12.0,0.,12.0,0.,12.0,0.,12.0
1979-08-07 13:05:03.990 ,5,0,0.,12.0,0.,12.0,0.,12.0,0.,12.0
1979-08-07 13:05:15.990 ,5,0,0.,12.0,0.,12.0,0.,12.0,0.,12.0
1979-08-07 13:05:27.990 ,5,0,0.,12.0,0.,12.0,0.,12.0,0.,12.0
1979-08-07 13:06:03.990 ,6,0,0.,12.0,0.,12.0,0.,12.0,0.,12.0
1979-08-07 13:06:15.990 ,6,0,0.,12.0,0.,12.0,0.,12.0,0.,12.0
1979-08-07 13:06:27.990 ,7,0,0.,12.0,0.,12.0,0.,12.0,0.,12.0
1979-08-07 13:06:39.990 ,7,0,0.,12.0,0.,12.0,0.,12.0,0.,12.0
1979-08-07 13:06:51.990 ,7,0,0.,12.0,0.,12.0,0.,12.0,0.,12.0
1979-08-07 13:07:03.990 ,7,0,0.,12.0,0.,12.0,0.,12.0,0.,12.0
1979-08-07 13:07:15.990 ,3,1,0.,12.0,0.,12.0,0.,12.0,0.,12.0
1979-08-07 13:07:27.990 ,3,1,0.,12.0,0.,12.0,0.,12.0,0.,12.0
1979-08-07 13:07:39.990 ,0,1,0.,12.0,0.,12.0,0.,12.0,0.,12.0
1979-08-07 13:07:51.990 ,0,1,0.,12.0,0.,12.0,0.,12.0,0.,12.0
1979-08-07 13:08:03.990 ,4,1,0.,12.0,0.,12.0,0.,12.0,0.,12.0
1979-08-07 13:08:15.990 ,4,1,0.,12.0,0.,12.0,0.,12.0,0.,12.0
1979-08-07 13:08:27.990 ,7,1,0.,12.0,0.,12.0,0.,12.0,0.,12.0
1979-08-07 13:08:39.990 ,7,1,0.,12.0,0.,12.0,0.,12.0,0.,12.0
1979-08-07 13:08:51.990 ,3,1,0.,12.0,0.,12.0,0.,12.0,0.,12.0
1979-08-07 13:09:03.990 ,3,1,0.,12.0,0.,12.0,0.,12.0,0.,12.0
1979-08-07 13:09:15.990 ,0,1,0.,12.0,0.,12.0,0.,12.0,0.,12.0
1979-08-07 13:09:27.990 ,0,1,0.,12.0,0.,12.0,0.,12.0,0.,12.0
1979-08-07 13:09:39.990 ,4,1,0.,12.0,0.,12.0,0.,12.0,0.,12.0
1979-08-07 13:09:51.990 ,4,1,0.,12.0,0.,12.0,0.,12.0,0.,12.0
1979-08-07 13:10:03.990 ,7,1,0.,12.0,0.,12.0,0.,12.0,0.,12.0
1979-08-07 13:10:15.990 ,7,1,0.,12.0,0.,12.0,0.,12.0,0.,12.0
1979-08-07 13:10:27.990 ,3,1,0.,12.0,0.,12.0,0.,12.0,0.,12.0
1979-08-07 13:10:39.990 ,3,1,0.,12.0,0.,12.0,0.,12.0,0.,12.0
1979-08-07 13:10:51.990 ,0,1,0.,12.0,0.,12.0,0.,12.0,0.,12.0
1979-08-07 13:11:03.990 ,0,1,0.,12.0,0.,12.0,0.,12.0,0.,12.0
1979-08-07 13:10:51.990 ,0,1,0.,12.0,0.,12.0,0.,12.0,0.,12.0
1979-08-07 13:11:03.990 ,0,1,0.,12.0,0.,12.0,0.,12.0,0.,12.0
1979-08-07 13:11:15.990 ,4,1,0.,12.0,0.,12.0,0.,12.0,0.,12.0
1979-08-07 13:11:27.990 ,4,1,0.,12.0,0.,12.0,0.,12.0,0.,12.0
1979-08-07 13:11:39.990 ,7,1,0.,12.0,0.,12.0,0.,12.0,0.,12.0
1979-08-07 13:11:51.990 ,7,1,0.,12.0,0.,12.0,0.,12.0,0.,12.0
1979-08-07 13:12:03.990 ,3,1,0.,12.0,0.,12.0,0.,12.0,0.,12.0
1979-08-07 13:12:15.990 ,3,1,0.,12.0,0.,12.0,0.,12.0,0.,12.0
1979-08-07 13:12:27.990 ,0,1,0.,12.0,0.,12.0,0.,12.0,0.,12.0
1979-08-07 13:12:39.990 ,0,1,0.,12.0,0.,12.0,0.,12.0,0.,12.0
1979-08-07 13:12:51.990 ,4,1,0.,12.0,0.,12.0,0.,12.0,0.,12.0
1979-08-07 13:13:03.990 ,4,1,0.,12.0,0.,12.0,0.,12.0,0.,12.0
1979-08-07 13:13:15.990 ,7,1,0.,12.0,0.,12.0,0.,12.0,0.,12.0
1979-08-07 13:13:27.990 ,7,1,0.,12.0,0.,12.0,0.,12.0,0.,12.0
1979-08-07 13:13:15.990 ,7,1,0.,12.0,0.,12.0,0.,12.0,0.,12.0
1979-08-07 13:13:27.990 ,7,1,0.,12.0,0.,12.0,0.,12.0,0.,12.0
1979-08-07 13:13:39.990 ,3,1,0.,12.0,0.,12.0,0.,12.0,0.,12.0
1979-08-07 13:13:51.990 ,3,1,0.,12.0,0.,12.0,0.,12.0,0.,12.0
1979-08-07 13:14:03.990 ,0,1,0.,12.0,0.,12.0,0.,12.0,0.,12.0
1979-08-07 13:14:15.990 ,0,1,0.,12.0,0.,12.0,0.,12.0,0.,12.0
1979-08-07 13:14:27.990 ,4,1,0.,12.0,0.,12.0,0.,12.0,0.,12.0
1979-08-07 13:14:39.990 ,4,1,0.,12.0,0.,12.0,0.,12.0,0.,12.0
1979-08-07 13:14:51.990 ,7,1,0.,12.0,0.,12.0,0.,12.0,0.,12.0
1979-08-07 13:15:03.990 ,7,1,0.,12.0,0.,12.0,0.,12.0,0.,12.0
1979-08-07 13:15:15.990 ,3,1,0.,12.0,0.,12.0,0.,12.0,0.,12.0
1979-08-07 13:15:27.990 ,3,1,0.,12.0,0.,12.0,0.,12.0,0.,12.0
1979-08-07 13:15:39.990 ,0,1,0.,12.0,0.,12.0,0.,12.0,0.,12.0
1979-08-07 13:15:51.990 ,0,1,0.,12.0,0.,12.0,0.,12.0,0.,12.0
1979-08-07 13:16:03.990 ,4,1,0.,12.0,0.,12.0,0.,12.0,0.,12.0
1979-08-07 13:16:15.990 ,4,1,0.,12.0,0.,12.0,0.,12.0,0.,12.0
1979-08-07 13:16:27.990 ,7,1,0.,12.0,0.,12.0,0.,12.0,0.,12.0
1979-08-07 13:16:39.990 ,7,1,0.,12.0,0.,12.0,0.,12.0,0.,12.0
1979-08-07 13:16:51.990 ,3,1,0.,12.0,0.,12.0,0.,12.0,0.,12.0
1979-08-07 13:17:03.990 ,3,1,0.,12.0,0.,12.0,0.,12.0,0.,12.0
1979-08-07 13:17:15.990 ,0,1,0.,12.0,0.,12.0,0.,12.0,0.,12.0
1979-08-07 13:17:27.990 ,0,1,0.,12.0,0.,12.0,0.,12.0,0.,12.0
1979-08-07 13:17:39.990 ,0,0,0.,12.0,0.,12.0,0.,12.0,0.,12.0
1979-08-07 13:17:51.990 ,0,0,0.,12.0,0.,12.0,0.,12.0,0.,12.0
1979-08-07 13:18:03.990 ,0,0,0.,12.0,0.,12.0,0.,12.0,0.,12.0
1979-08-07 13:18:15.990 ,0,0,0.,12.0,0.,12.0,0.,12.0,0.,12.0
1979-08-07 13:18:27.990 ,5,0,0.,12.0,0.,12.0,0.,12.0,0.,12.0
1979-08-07 13:18:39.990 ,5,0,0.,12.0,0.,12.0,0.,12.0,0.,12.0
1979-08-07 13:18:51.990 ,5,0,0.,12.0,0.,12.0,0.,12.0,0.,12.0
1979-08-07 13:19:03.990 ,5,0,0.,12.0,0.,12.0,0.,12.0,0.,12.0
1979-08-07 13:19:15.990 ,4,0,0.,12.0,0.,12.0,0.,12.0,0.,12.0
1979-08-07 13:19:27.990 ,4,0,0.,12.0,0.,12.0,0.,12.0,0.,12.0
1979-08-07 13:19:39.990 ,4,0,0.,12.0,0.,12.0,0.,12.0,0.,12.0
1979-08-07 13:19:51.990 ,4,0,0.,12.0,0.,12.0,0.,12.0,0.,12.0
1979-08-07 13:19:39.990 ,0,0,0.,12.0,0.,12.0,0.,12.0,0.,12.0
1979-08-07 13:19:51.990 ,0,0,0.,12.0,0.,12.0,0.,12.0,0.,12.0
1979-08-07 13:19:39.990 ,0,0,0.,12.0,0.,12.0,0.,12.0,0.,12.0
1979-08-07 13:19:51.990 ,0,0,0.,12.0,0.,12.0,0.,12.0,0.,12.0
1979-08-07 13:20:03.990 ,3,0,0.,12.0,0.,12.0,0.,12.0,0.,12.0
1979-08-07 13:20:15.990 ,3,0,0.,12.0,0.,12.0,0.,12.0,0.,12.0
1979-08-07 13:20:27.990 ,3,0,0.,12.0,0.,12.0,0.,12.0,0.,12.0
1979-08-07 13:20:39.990 ,3,0,0.,12.0,0.,12.0,0.,12.0,0.,12.0
1979-08-07 13:20:51.990 ,2,0,0.,12.0,0.,12.0,0.,12.0,0.,12.0
1979-08-07 13:21:03.990 ,2,0,0.,12.0,0.,12.0,0.,12.0,0.,12.0
1979-08-07 13:21:15.990 ,2,0,0.,12.0,0.,12.0,0.,12.0,0.,12.0
1979-08-07 13:21:27.990 ,2,0,0.,12.0,0.,12.0,0.,12.0,0.,12.0
1979-08-07 13:21:39.990 ,1,0,0.,12.0,0.,12.0,0.,12.0,0.,12.0
1979-08-07 13:21:51.990 ,1,0,0.,12.0,0.,12.0,0.,12.0,0.,12.0
1979-08-07 13:22:03.990 ,1,0,0.,12.0,0.,12.0,0.,12.0,0.,12.0
1979-08-07 13:22:15.990 ,1,0,0.,12.0,0.,12.0,0.,12.0,0.,12.0
1979-08-07 13:22:27.990 ,0,0,0.,12.0,0.,12.0,0.,12.0,0.,12.0
1979-08-07 13:22:39.990 ,0,0,0.,12.0,0.,12.0,0.,12.0,0.,12.0
1979-08-07 13:22:51.990 ,0,0,0.,12.0,0.,12.0,0.,12.0,0.,12.0
1979-08-07 13:23:03.990 ,0,0,0.,12.0,0.,12.0,0.,12.0,0.,12.0
1979-08-07 13:23:15.990 ,0,0,0.,12.0,0.,12.0,0.,12.0,0.,12.0
1979-08-07 13:23:27.990 ,0,0,0.,12.0,0.,12.0,0.,12.0,0.,12.0
1979-08-07 13:23:39.990 ,0,0,0.,12.0,0.,12.0,0.,12.0,0.,12.0
1979-08-07 13:23:51.990 ,0,0,0.,12.0,0.,12.0,0.,12.0,0.,12.0
1979-08-07 13:24:03.990 ,1,0,0.,12.0,0.,12.0,0.,12.0,0.,12.0
1979-08-07 13:24:15.990 ,1,0,0.,12.0,0.,12.0,0.,12.0,0.,12.0
1979-08-07 13:24:27.990 ,1,0,0.,12.0,0.,12.0,0.,12.0,0.,12.0
1979-08-07 13:24:39.990 ,1,0,0.,12.0,0.,12.0,0.,12.0,0.,12.0
1979-08-07 13:24:51.990 ,2,0,0.,12.0,0.,12.0,0.,12.0,0.,12.0
1979-08-07 13:25:03.990 ,2,0,0.,12.0,0.,12.0,0.,12.0,0.,12.0
1979-08-07 13:25:15.990 ,2,0,0.,12.0,0.,12.0,0.,12.0,0.,12.0
1979-08-07 13:25:27.990 ,2,0,0.,12.0,0.,12.0,0.,12.0,0.,12.0
1979-08-07 13:25:39.990 ,3,0,0.,12.0,0.,12.0,0.,12.0,0.,12.0
1979-08-07 13:25:51.990 ,3,0,0.,12.0,0.,12.0,0.,12.0,0.,12.0
1979-08-07 13:26:03.990 ,3,0,0.,12.0,0.,12.0,0.,12.0,0.,12.0
1979-08-07 13:26:15.990 ,3,0,0.,12.0,0.,12.0,0.,12.0,0.,12.0
1979-08-07 13:26:27.990 ,4,0,0.,12.0,0.,12.0,0.,12.0,0.,12.0
1979-08-07 13:26:39.990 ,4,0,0.,12.0,0.,12.0,0.,12.0,0.,12.0
1979-08-07 13:26:51.990 ,4,0,0.,12.0,0.,12.0,0.,12.0,0.,12.0
1979-08-07 13:27:03.990 ,4,0,0.,12.0,0.,12.0,0.,12.0,0.,12.0
1979-08-07 13:26:51.990 ,0,0,0.,12.0,0.,12.0,0.,12.0,0.,12.0
1979-08-07 13:27:03.990 ,0,0,0.,12.0,0.,12.0,0.,12.0,0.,12.0
1979-08-07 13:27:15.990 ,5,0,0.,12.0,0.,12.0,0.,12.0,0.,12.0
1979-08-07 13:27:27.990 ,5,0,0.,12.0,0.,12.0,0.,12.0,0.,12.0
1979-08-07 13:27:39.990 ,5,0,0.,12.0,0.,12.0,0.,12.0,0.,12.0
1979-08-07 13:27:51.990 ,5,0,0.,12.0,0.,12.0,0.,12.0,0.,12.0
1979-08-07 13:28:03.990 ,6,0,0.,12.0,0.,12.0,0.,12.0,0.,12.0
1979-08-07 13:28:15.990 ,6,0,0.,12.0,0.,12.0,0.,12.0,0.,12.0
1979-08-07 13:28:27.990 ,6,0,0.,12.0,0.,12.0,0.,12.0,0.,12.0
1979-08-07 13:28:39.990 ,6,0,0.,12.0,0.,12.0,0.,12.0,0.,12.0
1979-08-07 13:28:51.990 ,7,0,0.,12.0,0.,12.0,0.,12.0,0.,12.0
1979-08-07 13:29:03.990 ,7,0,0.,12.0,0.,12.0,0.,12.0,0.,12.0
1979-08-07 13:29:15.990 ,7,0,0.,12.0,0.,12.0,0.,12.0,0.,12.0
1979-08-07 13:29:27.990 ,7,0,0.,12.0,0.,12.0,0.,12.0,0.,12.0
1979-08-07 13:29:39.990 ,7,0,0.,12.0,0.,12.0,0.,12.0,0.,12.0
1979-08-07 13:29:51.990 ,7,0,0.,12.0,0.,12.0,0.,12.0,0.,12.0
1979-08-07 13:30:03.990 ,7,0,0.,12.0,0.,12.0,0.,12.0,0.,12.0
1979-08-07 13:30:15.990 ,7,0,0.,12.0,0.,12.0,0.,12.0,0.,12.0
1979-08-07 13:30:27.990 ,6,0,0.,12.0,0.,12.0,0.,12.0,0.,12.0
1979-08-07 13:30:39.990 ,6,0,0.,12.0,0.,12.0,0.,12.0,0.,12.0
1979-08-07 13:30:51.990 ,6,0,0.,12.0,0.,12.0,0.,12.0,0.,12.0
1979-08-07 13:31:03.990 ,6,0,0.,12.0,0.,12.0,0.,12.0,0.,12.0
1979-08-07 13:31:15.990 ,5,0,0.,12.0,0.,12.0,0.,12.0,0.,12.0
1979-08-07 13:31:27.990 ,5,0,0.,12.0,0.,12.0,0.,12.0,0.,12.0
1979-08-07 13:31:39.990 ,5,0,0.,12.0,0.,12.0,0.,12.0,0.,12.0
1979-08-07 13:31:51.990 ,5,0,0.,12.0,0.,12.0,0.,12.0,0.,12.0
1979-08-07 13:32:03.990 ,4,0,0.,12.0,0.,12.0,0.,12.0,0.,12.0
1979-08-07 13:32:15.990 ,4,0,0.,12.0,0.,12.0,0.,12.0,0.,12.0
1979-08-07 13:32:27.990 ,4,0,0.,12.0,0.,12.0,0.,12.0,0.,12.0
1979-08-07 13:32:39.990 ,4,0,0.,12.0,0.,12.0,0.,12.0,0.,12.0
1979-08-07 13:32:51.990 ,3,0,0.,12.0,0.,12.0,0.,12.0,0.,12.0
1979-08-07 13:33:03.990 ,3,0,0.,12.0,0.,12.0,0.,12.0,0.,12.0
1979-08-07 13:33:15.990 ,3,0,0.,12.0,0.,12.0,0.,12.0,0.,12.0
1979-08-07 13:33:27.990 ,3,0,0.,12.0,0.,12.0,0.,12.0,0.,12.0
1979-08-07 13:33:39.990 ,2,0,0.,12.0,0.,12.0,0.,12.0,0.,12.0
1979-08-07 13:33:51.990 ,2,0,0.,12.0,0.,12.0,0.,12.0,0.,12.0
1979-08-07 13:34:03.990 ,2,0,0.,12.0,0.,12.0,0.,12.0,0.,12.0
1979-08-07 13:34:15.990 ,2,0,0.,12.0,0.,12.0,0.,12.0,0.,12.0
1979-08-07 13:34:27.990 ,1,0,0.,12.0,0.,12.0,0.,12.0,0.,12.0
1979-08-07 13:34:39.990 ,1,0,0.,12.0,0.,12.0,0.,12.0,0.,12.0
1979-08-07 13:34:51.990 ,1,0,0.,12.0,0.,12.0,0.,12.0,0.,12.0
1979-08-07 13:35:03.990 ,1,0,0.,12.0,0.,12.0,0.,12.0,0.,12.0
1979-08-07 13:35:15.990 ,0,0,0.,12.0,0.,12.0,0.,12.0,0.,12.0
1979-08-07 13:35:27.990 ,0,0,0.,12.0,0.,12.0,0.,12.0,0.,12.0
1979-08-07 13:35:39.990 ,0,0,0.,12.0,0.,12.0,0.,12.0,0.,12.0
1979-08-07 13:35:51.990 ,0,0,0.,12.0,0.,12.0,0.,12.0,0.,12.0
1979-08-07 13:36:03.990 ,0,0,0.,12.0,0.,12.0,0.,12.0,0.,12.0
1979-08-07 13:36:15.990 ,0,0,0.,12.0,0.,12.0,0.,12.0,0.,12.0
1979-08-07 13:36:27.990 ,0,0,0.,12.0,0.,12.0,0.,12.0,0.,12.0
1979-08-07 13:36:39.990 ,0,0,0.,12.0,0.,12.0,0.,12.0,0.,12.0
1979-08-07 13:36:51.990 ,1,0,0.,12.0,0.,12.0,0.,12.0,0.,12.0
1979-08-07 13:37:03.990 ,1,0,0.,12.0,0.,12.0,0.,12.0,0.,12.0
1979-08-07 13:37:15.990 ,1,0,0.,12.0,0.,12.0,0.,12.0,0.,12.0
1979-08-07 13:37:27.990 ,1,0,0.,12.0,0.,12.0,0.,12.0,0.,12.0
1979-08-07 13:37:39.990 ,2,0,0.,12.0,0.,12.0,0.,12.0,0.,12.0
1979-08-07 13:37:51.990 ,2,0,0.,12.0,0.,12.0,0.,12.0,0.,12.0
1979-08-07 13:38:03.990 ,2,0,0.,12.0,0.,12.0,0.,12.0,0.,12.0
1979-08-07 13:38:15.990 ,2,0,0.,12.0,0.,12.0,0.,12.0,0.,12.0
1979-08-07 13:38:27.990 ,3,0,0.,12.0,0.,12.0,0.,12.0,0.,12.0
1979-08-07 13:38:39.990 ,3,0,0.,12.0,0.,12.0,0.,12.0,0.,12.0
1979-08-07 13:38:51.990 ,3,0,0.,12.0,0.,12.0,0.,12.0,0.,12.0
1979-08-07 13:39:03.990 ,3,0,0.,12.0,0.,12.0,0.,12.0,0.,12.0
1979-08-07 13:39:15.990 ,4,1,0.,12.0,0.,12.0,0.,12.0,0.,12.0
1979-08-07 13:39:27.990 ,4,1,,0,,0,,0,,0
1979-08-07 13:39:39.990 ,4,0,0.,12.0,0.,12.0,0.,12.0,0.,12.0
1979-08-07 13:39:51.990 ,4,0,0.,12.0,0.,12.0,0.,12.0,0.,12.0
1979-08-07 13:40:03.990 ,5,0,0.,12.0,0.,12.0,0.,12.0,0.,12.0
1979-08-07 13:40:15.990 ,5,0,0.,12.0,0.,12.0,0.,12.0,0.,12.0
1979-08-07 13:40:27.990 ,5,0,0.,12.0,0.,12.0,0.,12.0,0.,12.0
1979-08-07 13:40:39.990 ,5,0,0.,12.0,0.,12.0,0.,12.0,0.,12.0
1979-08-07 13:40:51.990 ,6,0,,0,,0,,0,,0
1979-08-07 13:41:03.990 ,6,0,0.,12.0,0.,12.0,0.,12.0,0.,12.0
1979-08-07 13:41:15.990 ,6,0,0.,12.0,0.,12.0,0.,12.0,0.,12.0
1979-08-07 13:41:27.990 ,6,0,0.,12.0,0.,12.0,0.,12.0,0.,12.0
1979-08-07 13:41:39.990 ,7,0,0.,12.0,0.,12.0,0.,12.0,0.,12.0
1979-08-07 13:41:51.990 ,7,0,0.,12.0,0.,12.0,0.,12.0,0.,12.0
1979-08-07 13:42:03.990 ,7,0,0.,12.0,0.,12.0,0.,12.0,0.,12.0
1979-08-07 13:42:15.990 ,7,0,0.,12.0,0.,12.0,0.,12.0,0.,12.0
1979-08-07 13:42:27.990 ,7,0,0.,12.0,0.,12.0,0.,12.0,0.,12.0
1979-08-07 13:42:39.990 ,7,0,0.,12.0,0.,12.0,0.,12.0,0.,12.0
1979-08-07 13:42:51.990 ,7,0,0.,12.0,0.,12.0,0.,12.0,0.,12.0
1979-08-07 13:43:03.990 ,7,0,0.,12.0,0.,12.0,0.,12.0,0.,12.0
1979-08-07 13:43:15.990 ,6,0,0.,12.0,0.,12.0,0.,12.0,0.,12.0
1979-08-07 13:43:27.990 ,6,0,0.,12.0,0.,12.0,0.,12.0,0.,12.0
1979-08-07 13:43:39.990 ,6,0,0.,12.0,0.,12.0,0.,12.0,0.,12.0
1979-08-07 13:43:51.990 ,6,0,1.,12.0,0.,12.0,0.,12.0,0.,12.0
1979-08-07 13:44:03.990 ,5,0,0.,12.0,0.,12.0,0.,12.0,0.,12.0
1979-08-07 13:44:15.990 ,5,0,0.,12.0,0.,12.0,0.,12.0,0.,12.0
1979-08-07 13:44:27.990 ,5,0,0.,12.0,0.,12.0,0.,12.0,0.,12.0
1979-08-07 13:44:39.990 ,5,0,0.,12.0,0.,12.0,0.,12.0,0.,12.0
1979-08-07 13:44:51.990 ,4,0,0.,12.0,0.,12.0,0.,12.0,0.,12.0
1979-08-07 13:45:03.990 ,4,0,0.,12.0,0.,12.0,0.,12.0,0.,12.0
1979-08-07 13:45:15.990 ,4,0,0.,12.0,0.,12.0,0.,12.0,0.,12.0
1979-08-07 13:45:27.990 ,4,0,0.,12.0,0.,12.0,0.,12.0,0.,12.0
1979-08-07 13:45:39.990 ,3,0,0.,12.0,0.,12.0,0.,12.0,0.,12.0
1979-08-07 13:45:51.990 ,3,0,0.,12.0,0.,12.0,0.,12.0,0.,12.0
1979-08-07 13:46:03.990 ,3,0,0.,12.0,0.,12.0,0.,12.0,0.,12.0
1979-08-07 13:46:15.990 ,3,0,0.,12.0,0.,12.0,0.,12.0,0.,12.0
1979-08-07 13:46:27.990 ,2,0,0.,12.0,0.,12.0,0.,12.0,0.,12.0
1979-08-07 13:46:39.990 ,2,0,0.,12.0,0.,12.0,0.,12.0,0.,12.0
1979-08-07 13:46:51.990 ,2,0,0.,12.0,0.,12.0,0.,12.0,0.,12.0
1979-08-07 13:47:03.990 ,2,0,0.,12.0,0.,12.0,0.,12.0,0.,12.0
1979-08-07 13:47:15.990 ,1,0,0.,12.0,0.,12.0,0.,12.0,0.,12.0
1979-08-07 13:47:27.990 ,1,0,0.,12.0,0.,12.0,0.,12.0,0.,12.0
1979-08-07 13:47:39.990 ,1,0,0.,12.0,0.,12.0,0.,12.0,0.,12.0
1979-08-07 13:47:51.990 ,1,0,0.,12.0,0.,12.0,0.,12.0,0.,12.0
1979-08-07 13:48:03.990 ,0,0,,0,,0,,0,,0
1979-08-07 13:48:15.990 ,0,0,0.,12.0,0.,12.0,0.,12.0,0.,12.0
1979-08-07 13:48:27.990 ,0,0,0.,12.0,0.,12.0,0.,12.0,0.,12.0
1979-08-07 13:48:39.990 ,0,0,0.,12.0,0.,12.0,0.,12.0,0.,12.0
1979-08-07 13:48:51.990 ,0,0,0.,12.0,0.,12.0,0.,12.0,0.,12.0
1979-08-07 13:49:03.990 ,0,0,0.,12.0,0.,12.0,0.,12.0,0.,12.0
1979-08-07 13:49:15.990 ,0,0,0.,12.0,0.,12.0,0.,12.0,0.,12.0
1979-08-07 13:49:27.990 ,0,0,0.,12.0,0.,12.0,0.,12.0,0.,12.0
1979-08-07 13:49:39.990 ,1,0,0.,12.0,0.,12.0,0.,12.0,0.,12.0
1979-08-07 13:49:51.990 ,1,0,0.,12.0,0.,12.0,0.,12.0,0.,12.0
1979-08-07 13:50:03.990 ,1,0,0.,12.0,0.,12.0,0.,12.0,0.,12.0
1979-08-07 13:50:15.990 ,1,0,0.,12.0,0.,12.0,0.,12.0,0.,12.0
1979-08-07 13:50:27.990 ,2,0,0.,12.0,0.,12.0,0.,12.0,0.,12.0
1979-08-07 13:50:39.990 ,2,0,0.,12.0,0.,12.0,0.,12.0,0.,12.0
1979-08-07 13:50:51.990 ,2,0,0.,12.0,0.,12.0,0.,12.0,0.,12.0
1979-08-07 13:51:03.990 ,2,0,0.,12.0,0.,12.0,0.,12.0,0.,12.0
1979-08-07 13:51:15.990 ,3,0,0.,12.0,0.,12.0,0.,12.0,0.,12.0
1979-08-07 13:51:27.990 ,3,0,0.,12.0,0.,12.0,0.,12.0,0.,12.0
1979-08-07 13:51:39.990 ,3,0,0.,12.0,0.,12.0,0.,12.0,0.,12.0
1979-08-07 13:51:51.990 ,3,0,0.,12.0,0.,12.0,0.,12.0,0.,12.0
1979-08-07 13:52:03.990 ,4,0,0.,12.0,0.,12.0,0.,12.0,0.,12.0
1979-08-07 13:52:15.990 ,4,0,0.,12.0,0.,12.0,0.,12.0,0.,12.0
1979-08-07 13:52:27.990 ,4,0,0.,12.0,0.,12.0,0.,12.0,0.,12.0
1979-08-07 13:52:39.990 ,4,0,0.,12.0,0.,12.0,0.,12.0,0.,12.0
1979-08-07 13:54:03.990 ,6,0,0.,12.0,0.,12.0,0.,12.0,0.,12.0
1979-08-07 13:54:15.990 ,6,0,0.,12.0,0.,12.0,0.,12.0,0.,12.0
1979-08-07 13:54:27.990 ,7,0,0.,12.0,0.,12.0,0.,12.0,0.,12.0
1979-08-07 13:54:39.990 ,7,0,0.,12.0,0.,12.0,0.,12.0,0.,12.0
1979-08-07 13:54:51.990 ,0,0,,0,,0,,0,,0
1979-08-07 13:55:03.990 ,0,0,,0,,0,,0,,0
1979-08-07 14:14:18.990 ,0,0,,0,,0,,0,,0
1979-08-07 14:14:30.990 ,0,0,0.,12.0,0.,12.0,0.,12.0,0.,12.0
1979-08-07 14:14:27.990 ,4,0,0.,12.0,0.,12.0,0.,12.0,0.,12.0
1979-08-07 14:14:39.990 ,4,0,0.,12.0,0.,12.0,0.,12.0,0.,12.0
1979-08-07 14:14:51.990 ,4,0,0.,12.0,0.,12.0,0.,12.0,0.,12.0
1979-08-07 14:15:03.990 ,4,0,0.,12.0,0.,12.0,0.,12.0,0.,12.0
1979-08-07 14:15:15.990 ,5,0,0.,12.0,0.,12.0,0.,12.0,0.,12.0
1979-08-07 14:15:27.990 ,5,0,0.,12.0,0.,12.0,0.,12.0,0.,12.0
1979-08-07 14:15:39.990 ,5,0,0.,12.0,0.,12.0,0.,12.0,0.,12.0
1979-08-07 14:15:51.990 ,5,0,0.,12.0,0.,12.0,0.,12.0,0.,12.0
1979-08-07 14:16:03.990 ,6,0,0.,12.0,0.,12.0,0.,12.0,0.,12.0
1979-08-07 14:16:15.990 ,6,0,0.,12.0,0.,12.0,0.,12.0,0.,12.0
1979-08-07 14:16:27.990 ,6,0,0.,12.0,0.,12.0,0.,12.0,0.,12.0
1979-08-07 14:16:39.990 ,6,0,0.,12.0,0.,12.0,0.,12.0,0.,12.0
1979-08-07 14:16:51.990 ,7,0,0.,12.0,0.,12.0,0.,12.0,0.,12.0
1979-08-07 14:17:03.990 ,7,0,0.,12.0,0.,12.0,0.,12.0,0.,12.0
1979-08-07 14:17:15.990 ,7,0,0.,12.0,0.,12.0,0.,12.0,0.,12.0
1979-08-07 14:17:27.990 ,7,0,0.,12.0,0.,12.0,0.,12.0,0.,12.0
1979-08-07 14:17:39.990 ,7,0,0.,12.0,0.,12.0,0.,12.0,0.,12.0
1979-08-07 14:17:51.990 ,7,0,0.,12.0,0.,12.0,0.,12.0,0.,12.0
1979-08-07 14:18:03.990 ,7,0,0.,12.0,0.,12.0,0.,12.0,0.,12.0
1979-08-07 14:18:15.990 ,7,0,0.,12.0,0.,12.0,0.,12.0,0.,12.0
1979-08-07 14:18:27.990 ,6,0,0.,12.0,0.,12.0,0.,12.0,0.,12.0
1979-08-07 14:18:39.990 ,6,0,0.,12.0,0.,12.0,0.,12.0,0.,12.0